Location: Barcelona
(41.3830°N, 2.1830°E)
Time: 16:43:50
(UTC+02:00)

ISS - Pass Details

Date: 11 March 2021
Orbit: 418 x 422 km, 51.6° (Epoch: 16 April)

Event Time Altitude Azimuth Distance (km) Brightness Sun altitude
Exits shadow 06:33:31 - 289° (WNW) 1,588 -1.4 -7.6°
Reaches altitude 10° 06:33:46 10° 287° (WNW) 1,496 -1.6 -7.6°
Maximum altitude 06:36:46 30° 224° (SW) 773 -2.8 -7.0°
Drops below altitude 10° 06:39:44 10° 161° (SSE) 1,488 -0.7 -6.4°
Sets 06:41:58 0° 150° (SSE) 2,348 0.5 -6.0°
